Location: Unspecified
(42.2730°N, 83.7130°W)
Time: 13:07:13
(UTC+00:00)

Cosmos 2298 Rocket - Pass Details

Date: 14 December 2025
Orbit: 774 x 780 km, 74.0° (Epoch: 17 January)

Event Time Altitude Azimuth Distance (km) Brightness Sun altitude
Rises 12:07:34 0° 342° (NNW) 3,269 6.9 -8.8°
Reaches altitude 10° 12:10:00 10° 346° (NNW) 2,336 6.2 -8.4°
Maximum altitude 12:15:16 65° 68° (ENE) 853 4.5 -7.5°
Drops below altitude 10° 12:20:30 10° 150° (SSE) 2,316 7.4 -6.6°
Sets 12:22:53 0° 154° (SSE) 3,239 8.2 -6.3°
